Location: Altenst�hlen
(53.5567°N, 8.9425°E)
Time: 05:39:48
(UTC+00:00)

STARLINK-50 - Pass Details

Date: 23 October 2019
Orbit: 548 x 551 km, 53.0° (Epoch: 13 November)

Event Time Altitude Azimuth Distance (km) Brightness Sun altitude
Rises 16:40:45 0° 264° (W) 2,716 9.8 -5.1°
Reaches altitude 10° 16:42:58 10° 264° (W) 1,823 8.1 -5.5°
Maximum altitude 16:47:07 84° 176° (S) 558 3.7 -6.1°
Drops below altitude 10° 16:51:16 10° 89° (E) 1,825 5.6 -6.7°
Enters shadow 16:51:38 - 89° (E) 1,968 5.8 -6.7°
